Location: Unspecified
(48.8656°N, 0.0000°E)
Time: 20:41:22
(UTC+00:00)

Vanguard 1 - Pass Details

Date: 19 June 2019
Orbit: 653 x 3830 km, 34.3° (Epoch: 17 July)

Event Time Altitude Azimuth Distance (km) Brightness Sun altitude
Rises 04:46:00 0° 242° (WSW) 6,665 13.6 6.0°
Reaches altitude 10° 04:51:39 10° 234° (SW) 5,102 13.1 6.8°
Maximum altitude 05:02:34 32° 179° (S) 2,545 12.0 8.4°
Drops below altitude 10° 05:09:14 10° 119° (ESE) 3,071 13.2 9.4°
Sets 05:11:44 0° 109° (ESE) 3,748 13.8 9.8°
